Location: Devils Tower National Monument
(44.5904°N, 104.7201°W)
Time: 00:22:29
(UTC-07:00)

Envisat - Pass Details

Date: 01 February 2020
Orbit: 764 x 766 km, 98.1° (Epoch: 20 February)

Event Time Altitude Azimuth Distance (km) Brightness Sun altitude
Rises 17:48:10 0° 168° (SSE) 3,216 6.3 -7.7°
Reaches altitude 10° 17:50:28 10° 170° (S) 2,294 5.6 -8.1°
Maximum altitude 17:55:32 79° 257° (WSW) 783 3.2 -8.9°
Drops below altitude 10° 18:00:38 10° 344° (NNW) 2,310 5.5 -9.8°
Sets 18:02:57 0° 346° (NNW) 3,240 6.3 -10.2°
